Flag for U.S.A. Weather past 2 weeks in Billings, Montana, U.S.A.

Now
48 °F

Partly sunny.


Feels Like: 47 °F
Forecast: 44 / 74 °F
Wind: 3 mph from Southwest

Location: Billings Logan International Airport

Current Time: May 22, 2015 at 7:49:23 AM

Latest Report: May 22, 2015 at 6:53 AM


Visibility: 10 mi

Pressure: 29.93 "Hg

Humidity: 80%

Dew point: 42 °F

Location of BillingsLocation

Historic Weather in Billings — Graph

°F

Billings temperature yesterday

Maximum temperature yesterday: 67 °F (at 2:53 PM)
Minimum temperature yesterday: 38 °F (at 4:53 AM)
Average temperature yesterday: 54 °F

Past Weeks' High & Low Weather Summary

 TemperatureHumidityPressure
High68 °F (May 13, 4:53 PM)100% (May 16, 3:53 AM)30.44 "Hg (May 16, 3:53 AM)
Low31 °F (May 11, 6:53 AM)15% (May 11, 3:53 PM)29.57 "Hg (May 16, 2:53 AM)
Average48 °F67%30.06 "Hg
* Reported May 7 5:53 AM — May 22 5:53 AM, Billings, Weather by CustomWeather, © 2015

Note: Actual official high and low records may vary slightly from our data, if they occured in-between our weather recording intervals... More about our weather records

Advertising

Billings weather history for previous 24 hours

 ConditionsComfort  
Time TempWeatherWind HumidityBarometerVisibility
5:53 AM
Fri, May 22
45 °FPassing clouds.No wind86%29.93 "Hg10 mi
4:53 AM47 °FPassing clouds.3 mph80%29.92 "Hg10 mi
3:53 AM47 °FPassing clouds.5 mph80%29.92 "Hg10 mi
2:53 AM48 °FPassing clouds.3 mph77%29.91 "Hg10 mi
1:53 AM49 °FClear.6 mph74%29.93 "Hg10 mi
12:53 AM50 °FClear.5 mph68%29.93 "Hg10 mi
11:53 PM
Thu, May 21
52 °FClear.8 mph64%29.94 "Hg10 mi
10:53 PM54 °FClear.7 mph59%29.96 "Hg10 mi
9:53 PM57 °FPassing clouds.12 mph51%29.97 "Hg10 mi
8:53 PM60 °FPassing clouds.16 mph47%29.96 "Hg10 mi
7:53 PM63 °FScattered clouds.16 mph41%29.95 "Hg10 mi
6:53 PM66 °FScattered clouds.14 mph36%29.95 "Hg10 mi
5:53 PM65 °FScattered clouds.17 mph37%29.96 "Hg10 mi
4:53 PM66 °FScattered clouds.22 mph36%29.98 "Hg10 mi
3:53 PM67 °FScattered clouds.12 mph33%29.99 "Hg10 mi
2:53 PM67 °FPassing clouds.14 mph32%30.01 "Hg10 mi
1:53 PM64 °FPassing clouds.12 mph33%30.04 "Hg10 mi
12:53 PM62 °FPassing clouds.10 mph43%30.06 "Hg10 mi
11:53 AM60 °FPassing clouds.9 mph47%30.08 "Hg10 mi
10:53 AM55 °FPassing clouds.5 mph55%30.09 "Hg10 mi
9:53 AM51 °FPassing clouds.No wind59%30.11 "Hg10 mi
8:53 AM49 °FPassing clouds.6 mph64%30.12 "Hg10 mi
7:53 AM46 °FPassing clouds.No wind68%30.12 "Hg10 mi
Weather by CustomWeather, © 2015

See weather overviewHow to use our weather pages